Showing default

EINSTEIN PROBE, 58753

Orbit data source: Space-Track

EINSTEIN PROBE, 58753 is a payload satellite owned by CAS (CN) in LEO that was launched on Tue, 09 Jan 2024 UTC via a CHANG ZHENG 2C launch vehicle from the Xichang Space Center, China (XSC). Payload-class satellites include a variety of spacecraft equipped with specific instruments for various scientific and technological missions. These include communications satellites like Starlink; space stations such as the ISS; scientific satellites like the Hubble; Earth observation satellites from companies like Planet Labs, Umbra, and HawkEye 360; GPS; miniature CubeSats for education and research; and military/defense satellites.

Loading next visibility...
Identifier
58753, 2024-007A
Orbit
LEO
Country
Flag of CNCN / PRC
Related business
Manufacturer
CAST
Mission
Operational Civil Astronomy
Bus & Motor
EP, Unknown motor
Mass
1,450 kg wet, 1,450 kg dry
Launch date (UTC)
2024-01-09 (2 years ago)
Launch vehicle
CHANG ZHENG 2C
Launch site
Xichang Space Center, China (XSC)
Object type
Payload
Rocket body
Debris
Shape & HBR
Box + 2 Pan, 7.0 m
Radar Cross Section
17.075 m², Large (>1 m²)

Expand to show TLE details & history
Last TLE update: 1 day ago

TLE from 1 day ago
0 EINSTEIN PROBE
1 58753U 24007A   26172.42038117  .00001578  00000-0  10639-3 0  9998
2 58753  28.9969 185.9347 0009408 257.7512 102.2033 15.01903670134203
Epoch: 2026-06-21T10:05Z
TLE epoch observation values (Epoch: 2026-06-21T10:05:20.933Z)
Latitude
Longitude
124.97658°
Altitude
560.735 km
Speed
7.583 km/s
True Right ascension
12h 23m 44s
True Declination
0° 00' 00"
Sunlit
Object was in daylight at epoch
Visualization orbit readout
Latitude
Unknown
Longitude
Unknown
Altitude
Unknown
Speed
Unknown
Apparent Right ascension
Unknown
Apparent Declination
Unknown
Sunlit
N/A
Visualization observer readout
Local Sidereal Time
21:28:43
Azimuth
Unknown
Elevation
Unknown
Doppler factor
Unknown
Orbital elements
Apogee altitude
571.674 km
Perigee altitude
558.61 km
Semi-major axis
6,943.279 km
Eccentricity
0.00094
Inclination
28.9969°
RAAN
185.9347°
Arg. of periapsis
257.7512°
True anomaly
102.30865°
Mean anomaly
102.2033°
Eccentric anomaly
102.25598°
Mean motion
3.75142 °/min
Orbital period
95.96 mins
BSTAR
0.00010639
Loading maneuver chart data...
Computing Atmospheric mass density...
Loading historical data...
Loading historical data...
Loading historical data...
Loading historical data...
Loading historical data...
Loading historical data...
Loading historical data...
Other satellites on launch #7 in the year 2024 (2024-01-09 UTC)

Documentation

Showing up to 5 results
|